Regional Weather Roundup
Issued by NWS Lake Charles, LA

Home | Current Version | Previous Version | Text Only | Print | Product List | Glossary On
Versions: 1 2 3 4 5 6 7 8 9 10 11 12 13 14 15 16 17 18 19 20 21 22 23 24 25 26 27 28 29 30 31 32 33 34 35 36 37 38 39 40 41 42 43 44 45 46 47 48
000
ASUS44 KLCH 301510
RWRLCH
RWRLCH
REGIONAL WEATHER ROUNDUP
NATIONAL WEATHER SERVICE LAKE CHARLES LA
1000 AM CDT TUE JUN 30 2015

Note: "fair" indicates few or no clouds below 12,000 feet with no
significant weather and/or obstructions to visibility.


ACROSS SOUTHEAST TEXAS

CITY           SKY/WX    TMP DP  RH WIND       PRES   REMARKS
BEAUMONT       PTSUNNY   86  79  79 NW5       30.05S
BEAUMONT CITY  CLOUDY    84  78  81 W3        30.06S
ORANGE         PTSUNNY   83  81  94 CALM      30.07S THUNDER
JASPER         MOSUNNY   86  78  78 SW6       30.09S
$$

ACROSS CENTRAL LOUISIANA

CITY           SKY/WX    TMP DP  RH WIND       PRES   REMARKS
LEESVILLE      MOSUNNY   84  77  79 W8        30.06S
FULLERTON        N/A     88  75  65 VRB5      30.04S
ALEXANDRIA INT PTSUNNY   83  76  79 W6        30.04F
ESLER FIELD    PTSUNNY   87  74  64 W15G21    30.06F
DERIDDER         N/A     85  77  75 W5        30.08F
OAKDALE        PTSUNNY   83  77  81 SW6       30.06F
OPELOUSAS        N/A    N/A N/A N/A SW5       30.07F
$$

ACROSS SOUTHWEST AND SOUTH CENTRAL LOUISIANA

CITY           SKY/WX    TMP DP  RH WIND       PRES   REMARKS
SULPHUR        MOSUNNY   85  81  85 E5        30.07R HX 101
LAKE CHARLES   MOSUNNY   81  74  79 SW3       30.07R
CHENNAULT INT  NOT AVBL
CAMERON PHI    SUNNY     84  79  84 CALM      30.10R HAZE
DEQUINCY       PTSUNNY   84  80  86 CALM      30.07R
JENNINGS         N/A     85  78  80 W7        30.07S
LAFAYETTE      PTSUNNY   85  77  77 SW8       30.07F
NEW IBERIA     PTSUNNY   86  79  79 SW9       30.08S
ABBEVILLE        N/A     84  78  81 SW8       30.07F
PATTERSON      CLOUDY    82  75  78 SW7       30.10R
SALT POINT       N/A     86  78  77 SW5       30.08R
$$

SELECTED SITES ACROSS THE REGION

CITY           SKY/WX    TMP DP  RH WIND       PRES   REMARKS
HOUSTON BUSH   PTSUNNY   87  75  67 W8        30.05S
HOUSTON HOBBY  PTSUNNY   87  75  67 SW12      30.04S
GALVESTON      MOSUNNY   87  79  76 SW10      30.05S HX 101
COLLEGE STAT   CLOUDY    80  77  90 NW6       30.08R
CONROE         MOSUNNY   84  74  71 VRB6      30.07R
HUNTSVILLE     MOSUNNY   82  76  81 W5        30.08R
LUFKIN         PTSUNNY   82  76  81 W10       30.07S
SHREVEPORT     PTSUNNY   86  74  67 W14       30.03F
MONROE         MOSUNNY   86  76  71 W13       30.03F
NATCHEZ MS     PTSUNNY   82  75  78 SW12      30.06F
BATON ROUGE    MOSUNNY   84  76  76 W8        30.08S
N.O. INTL ARPT PTSUNNY   87  75  67 SW12      30.09S
SLIDELL        PTSUNNY   83  76  79 VRB6      30.08F
$$

MARINE REPORTS

STATION/POSITION TIME  TEMP    WIND        PRES    VSBY  WAVE
                       AIR SEA DIR/SP/G                  HT/PER
                 (UTC) (F)     (DEG/KT/KT) (MB)    (MI)  (FT/S)
BUOY 30 S HIGH I 1450   84 83  240/  4/  6 1017.2R         3/ 5
SEA RIM ST PARK  1400   83     230/  7/  8 1018.1R
PORT ARTHUR      1400      83  220/  7/ 11 1017.7R
SABINE PASS N    1400   86 83  240/  8/ 12 1017.9R
TEXAS POINT      NOT AVBL
CALCASIEU PASS   1400   84 83  250/  7/ 10   N/A
LK CHARLES BEACH 1400   83 85                N/A
MARSH ISLAND     1400   86     240/  4/  9   N/A           0
FRESH WATER LOCK 1400   85 85  200/  9/ 13 1018.4R
AMERADA PASS     1400   84 82  200/  3/  7 1018.7R
$$



USA.gov is the U.S. government's official web portal to all federal, state and local government web resources and services.